Regional Weather Roundup
Issued by NWS

Home | Current Version | Previous Version | Graphics & Text | Print | Product List | Glossary On
Versions: 1 2 3 4 5 6 7 8 9 10 11 12 13 14 15 16 17 18 19 20 21 22 23 24 25 26 27 28 29 30 31 32 33 34 35 36 37 38 39 40 41 42 43 44 45 46 47 48 49 50
000
ASUS43 KMKX 200800
RWRWI

WISCONSIN REGIONAL WEATHER ROUNDUP
NATIONAL WEATHER SERVICE MILWAUKEE/SULLIVAN WI
300 AM CDT MON OCT 20 2014

NOTE: "FAIR" INDICATES FEW OR NO CLOUDS BELOW 12,000 FEET WITH NO
SIGNIFICANT WEATHER AND/OR OBSTRUCTIONS TO VISIBILITY.

WIZ001-002-006>008-014>016-023>028-200900-
NORTHWEST WISCONSIN

CITY           SKY/WX    TMP DP  RH WIND       PRES   REMARKS
SUPERIOR ARPT  PTCLDY    45  41  85 W3        29.84R
ASHLAND        CLOUDY    48  42  80 NW3       29.83R
HAYWARD        CLEAR     39  36  89 CALM      29.84R
SIREN          CLEAR     40  39  95 CALM      29.87R
CUMBERLAND     CLEAR     45  39  81 NW7       29.85R
RICE LAKE      CLEAR     48  40  74 CALM      29.86R
CHETEK         CLEAR     47  42  82 W3        29.84R
LADYSMITH      CLEAR     48  42  79 NW9       29.84R
EAU CLAIRE     CLEAR     50  41  71 NW9       29.84R
MENOMONIE      CLEAR     52  42  68 NW7       29.86R
NEW RICHMOND   CLEAR     47  40  78 NW6       29.87R
OSCEOLA        CLEAR     49  42  76 CALM      29.91R
$$

WIZ003>005-009-010-017-018-200900-
NORTH CENTRAL WISCONSIN

CITY           SKY/WX    TMP DP  RH WIND       PRES   REMARKS
MANITOWISH WTR CLOUDY    46  43  91 NW6       29.79R
ARBOR VITAE    MOCLDY    47  44  89 N10       29.78R
WOODRUFF       MOCLDY    47  44  89 N10       29.78R
RHINELANDER    CLEAR     45  41  86 NW3       29.78R
EAGLE RIVER    FOG       35  35 100 CALM      29.76R VSB 1/2
LAND O LAKES   CLOUDY    38  38 100 CALM      29.77R
PHILLIPS       CLEAR     42  40  95 CALM      29.80R
TOMAHAWK       CLEAR     37  36  96 CALM      29.79R
MEDFORD        CLEAR     42  40  91 NW7       29.80R
MERRILL        PTCLDY    32  32 100 CALM      29.78R FOG
$$

WIZ029-030-035-036-043>047-200900-
CENTRAL WISCONSIN

CITY           SKY/WX    TMP DP  RH WIND       PRES   REMARKS
WAUSAU         CLEAR     42  41  96 NW7       29.76R
MOSINEE        CLEAR     41  41 100 NW5       29.77S
MARSHFIELD     PTCLDY    47  43  86 N10       29.78R
STEVENS POINT  CLEAR     35  35  99 CALM      29.77R FOG
WAUPACA        CLEAR     42  41  95 CALM      29.76F FOG
WAUTOMA        PTCLDY    36  36 100 CALM      29.77F
WISC RAPIDS    CLEAR     39  38  96 CALM      29.78S
CAMP DOUGLAS   NOT AVBL
$$

WIZ011>013-019>022-031-037>040-048>050-200900-
NORTHEAST WISCONSIN

CITY           SKY/WX    TMP DP  RH WIND       PRES   REMARKS
ANTIGO         FOG       34  34 100 CALM      29.76S VSB 1/2
SHAWANO        CLEAR     42  40  93 CALM      29.76F
OCONTO         PTCLDY    41  41 100 W3        29.74F
STURGEON BAY   PTCLDY    48  43  81 SW7       29.74F
GREEN BAY      CLEAR     45  42  89 SW3       29.75F
MANITOWOC      NOT AVBL
APPLETON       CLEAR     45  41  87 SW3       29.76F
CLINTONVILLE   FOG       37  36  93 CALM      29.76S VSB 1
OSHKOSH        CLEAR     47  42  83 VRB3      29.76S
$$

WIZ032>034-041-042-053>061-200900-
SOUTHWEST WISCONSIN

CITY           SKY/WX    TMP DP  RH WIND       PRES   REMARKS
LA CROSSE      CLEAR     49  43  80 N8        29.83R
SPARTA         PTCLDY    42  41  97 W6        29.82R
VIROQUA        CLEAR     48  43  82 NW6       29.82R
BOSCOBEL       CLEAR     47  43  86 SW5       29.82R
PRAIRIE DU CHI CLEAR     49  42  79 W6        29.83R
PLATTEVILLE    CLEAR     48  44  86 CALM      29.83F
$$

WIZ056-057-062-063-064-067-068-200900-
SOUTH CENTRAL WISCONSIN

CITY           SKY/WX    TMP DP  RH WIND       PRES   REMARKS
REEDSBURG      CLEAR     46  43  88 CALM      29.78F
BARABOO/DELLS  CLEAR     47  42  81 W3        29.78F
LONE ROCK      NOT AVBL
MINERAL POINT  CLEAR     48  43  81 W6        29.81F
MADISON        CLEAR     51  43  74 CALM      29.78F
MIDDLETON      CLEAR     50  42  76 CALM      29.79F
WATERTOWN      CLEAR     45  43  91 CALM      29.78F
MONROE         CLEAR     50  43  76 SW13      29.80F
JANESVILLE     CLEAR     48  41  76 SW5       29.80F
$$

WIZ051-052-058>065-066-070>072-200900-
SOUTHEAST WISCONSIN

CITY           SKY/WX    TMP DP  RH WIND       PRES   REMARKS
MILWAUKEE      PTCLDY    50  42  74 SW8       29.80R
WAUKESHA       PTCLDY    46  41  81 SW5       29.81F
MILWAUKEE/TIMM PTCLDY    46  41  81 SW7       29.80F
RACINE         MOCLDY    52  42  69 W9G21     29.81F
BURLINGTON     CLEAR     45  41  86 S5        29.81F
KENOSHA        PTCLDY    50  43  77 SW13      29.81F
FOND DU LAC    CLEAR     47  41  80 SW9       29.77S
SHEBOYGAN      PTCLDY    47  41  80 W7        29.77S
WEST BEND      PTCLDY    50  41  71 SW6       29.78F
JUNEAU         CLEAR     43  40  90 SW6       29.79F
$$

LSZ147-162-200900-
LAKE SUPERIOR

STATION/POSITION TIME  TEMP    WIND        PRES    WAVE
                       AIR SEA DIR/SP/G            HT/PER
                 (UTC) (F)     (DEG/KT/KT) (MB)    (FT/S)
W MID LAKE BUOY  0650   46 46  320/  2/  4 1008.8R   1
DEVILS ISLAND    0700   51     330/ 13/ 14 1009.5R
PORT WING        0700   52     270/  7/  9 1010.2S
SAXON HARBOR     0700   52     310/  6/ 10 1009.5R
$$

LMZ867-665-643>646-200900-
LAKE MICHIGAN

STATION/POSITION TIME  TEMP    WIND        PRES    WAVE
                       AIR SEA DIR/SP/G            HT/PER
                 (UTC) (F)     (DEG/KT/KT) (MB)    (FT/S)
CHAMBERS ISLAND  0700   51     210/  5/ 10 1007.1S
N MID LAKE BUOY  0650   52 52  220/ 16/ 19 1006.8F   6/ 7
NORTHPORT PIER   0700   52     250/  3/  9 1007.1S
KEWAUNEE LAKESHO 0700   47     290/  3/  4 1006.8F
SHEBOYGAN LAKESH 0700   53 51  240/ 11/ 14 1008.3F
PORT WASHINGTON  0700   53     260/  6/ 11 1009.1S
ATWATER BUOY     0700   54     220/ 12/ 16 1009.9F
MILWAUKEE LAKESH 0700   53     240/ 12/ 14   N/A
S MID LAKE BUOY  0650   56 55  220/ 21/ 25 1009.7F   5/ 6
KENOSHA   LAKESH 0700   53     230/ 13/ 20 1009.5F
$$

TC  - TEMPERATURE IN CELSIUS
VSB - VISIBILITY IN STATUTE MILES
WCI - WIND CHILL INDEX
HX  - HEAT INDEX



USA.gov is the U.S. government's official web portal to all federal, state and local government web resources and services.